SCP
1 1 0 0 0 0 0 0 0 0 0 0 0 0 0 0 0 0 0 0 0 0 0 0 0 0 0 0 0 0 1 1 1 1 2 2 2 2
1 1 0 0 0 0 0 0 0 0 0 0 0 1 0 0 0 0 0 0 0 0 0 0 0 0 0 0 0 0 0 1 1 1 1 2 2 2
1 1 1 0 0 1 1 1 1 1 1 1 1 1 1 1 1 0 0 0 0 0 0 0 0 0 0 0 0 0 0 0 0 1 1 1 1 1
1 1 1 1 1 1 1 1 1 1 1 1 1 1 1 1 1 0 0 0 0 0 0 0 0 0 0 0 0 0 0 0 0 0 0 0 1 1
2 1 1 1 1 1 1 1 1 1 1 2 2 2 2 1 1 0 0 0 0 0 0 0 0 0 0 0 0 0 0 0 0 0 0 0 0 0
1 1 1 1 1 1 1 1 1 1 2 2 2 2 1 1 1 1 1 0 0 0 0 0 0 0 0 0 0 0 0 0 0 0 0 0 0 0
1 1 1 1 1 1 1 1 1 1 1 1 1 1 1 1 1 1 1 1 0 0 0 0 0 0 0 0 0 0 0 0 0 0 0 0 0 0
1 1 1 1 1 1 1 1 0 1 1 1 1 1 1 1 1 1 1 1 1 1 0 0 0 0 0 0 0 0 0 0 0 0 0 0 0 0
1 1 1 1 1 1 1 0 0 0 1 1 1 1 1 1 1 1 1 1 1 1 1 0 0 0 0 0 0 0 0 0 0 0 0 0 0 0
1 1 1 1 1 1 1 1 0 0 0 0 1 1 1 1 1 1 1 1 1 1 1 1 1 1 0 0 0 0 0 0 0 0 0 0 0 0
1 1 1 1 1 1 1 1 1 0 0 0 0 0 0 0 1 1 1 1 1 1 1 1 1 1 1 0 0 0 0 0 0 0 0 0 0 0
1 1 1 1 1 1 1 1 1 1 0 0 0 0 0 0 0 1 1 1 1 1 1 1 2 1 1 1 0 0 0 0 0 0 0 0 0 0
1 1 1 1 0 0 0 1 1 1 0 0 0 0 0 0 1 1 1 1 1 1 1 1 2 2 1 1 1 1 0 0 0 0 0 0 0 0
1 1 1 0 0 0 0 0 0 0 0 0 0 0 0 0 1 1 1 1 1 1 1 1 2 2 2 1 1 1 1 0 0 0 0 0 0 0
1 0 0 0 0 0 0 0 0 0 0 0 0 0 0 0 1 1 1 1 1 1 1 1 1 1 1 1 1 1 1 1 1 0 0 0 0 0
0 0 0 0 0 0 0 0 0 0 0 0 0 0 1 1 1 1 1 1 1 1 1 1 1 1 1 1 1 1 1 1 1 1 0 0 0 0
0 0 0 0 1 1 1 1 1 0 0 0 1 1 1 1 1 1 1 1 1 1 1 1 1 1 1 1 1 1 1 1 1 1 1 1 0 0
0 0 0 1 1 1 1 1 1 1 1 1 1 1 1 1 1 1 1 1 1 1 1 1 1 1 1 1 1 1 1 1 1 1 1 1 0 0
0 0 0 1 1 1 1 1 1 1 1 1 1 1 1 1 1 1 1 0 0 0 1 1 1 1 0 0 1 1 1 1 1 1 1 1 0 0
0 0 0 1 1 1 1 1 1 1 1 1 1 1 1 1 1 1 0 0 0 0 0 0 1 0 0 0 1 0 0 0 1 1 1 1 1 0
0 0 0 0 1 1 1 1 1 1 1 1 1 1 1 1 1 1 0 0 0 0 0 0 0 0 0 0 0 0 0 0 0 0 1 1 1 1
1 0 0 0 1 1 1 1 1 1 1 1 1 1 1 1 1 0 0 0 0 0 0 0 0 0 0 0 0 0 0 0 0 0 0 0 1 1
1 1 1 1 1 1 1 1 1 1 1 1 0 0 0 0 0 0 0 0 0 0 0 0 0 0 0 0 0 0 0 0 0 0 0 0 0 0
Wind_Speed
0 1 1 1 1 1 2 3 3 2 0 1 1 1 1 1 2 1 1 2 2 2 2 2 2 2 2 1 1 1 1 1 2 3 4 4 4 4
1 1 0 1 1 1 1 1 1 2 1 0 1 1 1 2 3 2 2 4 4 3 3 3 4 4 4 3 2 1 1 0 0 1 2 3 3 3
1 1 1 1 1 1 2 2 1 2 2 0 1 1 1 2 3 2 2 3 3 5 5 5 5 5 5 4 3 3 3 2 2 1 2 1 2 2
2 2 1 2 2 2 2 2 2 1 2 1 1 1 1 2 2 3 3 3 3 7 7 7 6 6 6 5 5 4 4 3 4 4 4 3 3 3
3 2 2 2 2 2 2 2 1 2 2 2 1 1 1 2 2 3 4 3 4 5 7 7 8 7 7 7 6 5 4 4 5 5 5 5 5 5
3 3 2 2 2 2 2 2 2 3 3 2 1 1 1 1 1 2 3 3 3 4 5 6 7 8 9 9 8 7 6 5 5 4 5 5 6 6
3 3 3 4 4 3 3 2 3 3 2 2 1 1 1 1 1 0 2 2 2 3 3 3 3 4 5 7 8 8 7 6 6 6 5 5 5 5
2 2 3 4 5 6 6 5 5 3 2 2 1 1 0 0 0 0 1 1 1 2 2 3 3 3 3 3 6 7 7 7 6 6 6 5 5 4
2 2 2 3 4 4 6 7 6 6 4 2 2 1 1 1 1 1 1 1 0 1 1 2 2 2 3 4 6 6 5 6 6 6 5 5 4 4
3 2 2 2 3 4 4 5 4 4 3 2 1 0 0 0 1 2 1 1 2 2 1 1 1 1 2 2 5 5 5 4 5 5 5 4 4 3
3 3 2 3 3 5 5 4 4 3 4 5 4 4 4 4 3 3 2 2 1 1 1 1 0 1 1 2 3 4 4 4 4 4 4 4 3 2
3 3 4 4 4 4 4 4 3 2 2 4 5 5 5 4 5 2 1 2 1 0 0 0 0 1 0 1 2 2 2 3 3 3 3 3 2 2
2 2 3 5 6 5 4 3 2 2 2 3 3 4 4 3 3 2 1 1 1 0 0 1 1 0 1 0 1 1 2 1 1 2 2 1 1 1
2 2 2 4 5 5 4 4 4 4 3 3 3 3 2 2 2 2 2 2 1 1 1 1 1 1 1 0 1 1 1 1 1 1 1 1 1 1
3 4 4 5 5 4 5 5 4 3 3 3 2 1 1 2 2 2 3 3 3 3 3 2 1 1 1 1 0 1 1 1 1 1 1 1 1 1
3 4 6 6 5 4 3 2 2 2 2 2 1 1 2 2 2 2 2 2 2 3 3 3 1 1 1 0 1 1 1 1 1 1 1 1 1 1
3 3 3 3 3 3 2 2 2 2 2 1 1 2 2 2 2 2 2 2 2 1 2 3 2 1 0 1 1 1 1 1 1 1 1 2 2 2
5 3 3 2 2 1 1 1 1 1 1 1 1 1 1 1 2 2 2 1 1 1 2 2 1 1 1 1 1 2 1 2 2 2 2 2 3 2
4 3 2 1 1 1 1 1 1 1 0 1 1 1 1 1 1 1 1 1 1 1 2 2 1 1 2 3 2 1 2 2 2 2 2 2 3 3
2 2 1 1 1 0 1 1 1 1 1 1 1 1 0 0 1 1 1 1 1 1 2 2 2 1 2 2 2 2 2 2 2 3 3 2 3 4
2 1 1 1 1 0 0 0 0 1 1 1 1 1 1 0 1 1 1 1 1 1 2 2 3 3 1 1 1 2 2 2 3 3 3 3 3 3
1 1 1 1 1 1 0 0 0 0 0 1 1 1 1 1 1 1 1 1 2 2 2 2 2 1 1 1 2 3 3 3 2 3 4 3 3 3
1 1 1 1 1 1 0 0 0 0 1 1 1 1 1 1 1 1 1 2 2 2 2 2 2 1 1 1 2 3 4 4 3 3 3 4 5 7
Wind_Direction
123 157 155 159 153 166 160 159 159 168 253 328 353 353 347 10 27 24 32 52 64 54 49 47 44 42 32 17 338 321 305 276 269 258 249 245 235 236
98 86 46 40 99 115 137 136 147 164 178 333 320 325 337 28 41 36 38 52 51 57 62 58 55 53 51 56 60 52 40 6 283 260 242 224 212 225
90 97 57 68 93 93 102 107 108 132 153 47 350 348 15 32 28 32 38 43 43 56 60 62 61 57 59 61 62 56 52 52 47 59 70 103 172 188
85 84 64 73 80 83 95 102 112 130 141 135 41 16 20 32 35 43 41 45 47 51 54 54 55 53 55 58 61 60 57 57 63 67 67 70 79 88
102 102 97 92 83 87 96 98 103 104 107 120 83 36 30 45 48 51 50 36 45 52 56 54 51 52 55 55 58 60 59 60 67 74 74 72 74 76
86 91 95 107 115 113 100 96 102 96 94 100 90 59 43 35 57 54 46 36 32 39 47 50 49 51 50 51 54 59 62 63 64 70 76 79 80 80
80 76 78 83 86 92 104 111 113 107 104 101 93 74 54 52 29 35 64 53 41 38 39 34 36 43 43 43 51 57 65 70 72 73 79 86 88 87
86 74 75 68 75 81 89 98 108 119 126 118 112 114 88 210 195 134 113 88 59 16 36 31 37 48 38 41 43 58 67 71 71 70 73 79 87 91
92 83 79 73 81 86 78 73 68 72 97 138 133 156 214 218 160 132 124 100 103 110 81 50 32 43 31 35 39 55 66 71 72 71 71 75 81 90
84 84 88 74 79 99 95 78 64 53 58 81 110 108 46 136 163 168 157 104 70 63 60 82 33 28 19 25 36 48 57 65 70 71 68 67 67 70
62 60 82 83 77 99 100 89 69 47 53 63 65 62 63 69 83 95 95 103 86 64 23 62 99 43 17 22 31 44 49 55 61 66 69 69 65 66
55 50 57 76 84 93 100 101 90 52 49 51 48 44 47 57 67 87 119 128 111 118 17 84 98 93 43 17 16 22 35 42 45 50 59 69 71 82
77 57 51 73 85 87 85 88 106 110 80 69 57 44 40 41 39 41 54 107 124 123 148 164 132 107 127 302 347 4 8 17 27 29 36 39 41 76
95 73 63 76 82 78 76 79 83 85 80 73 60 41 32 24 16 25 46 54 49 67 109 136 129 139 143 162 303 332 339 349 3 6 5 20 24 14
94 95 83 78 76 71 66 71 80 83 85 80 70 31 4 8 32 45 47 50 49 49 61 74 98 113 133 188 273 304 312 323 336 339 341 341 318 310
89 83 78 72 70 62 58 57 65 78 97 94 67 29 26 41 47 46 48 50 55 35 28 41 69 122 147 194 211 275 295 289 309 324 326 317 315 284
103 80 69 65 61 51 48 45 50 60 63 61 67 51 39 40 38 35 47 65 60 30 11 11 20 29 347 215 256 294 300 301 294 306 292 293 296 294
101 91 80 74 74 62 48 39 45 52 43 55 71 68 60 51 41 40 44 52 47 12 357 350 1 12 1 4 247 264 296 299 300 290 270 278 290 293
99 100 97 92 84 74 54 46 36 28 48 73 71 65 50 43 46 32 29 26 14 357 342 339 340 352 334 327 335 262 270 289 290 284 275 271 280 291
107 118 119 115 104 79 47 27 33 49 59 56 45 29 24 31 21 352 354 357 341 337 339 341 335 307 276 292 302 308 274 271 287 292 291 282 282 284
124 130 135 139 146 152 89 45 63 46 34 32 14 348 333 316 307 303 312 326 319 314 309 310 308 299 269 259 289 315 321 280 255 273 290 295 304 302
154 164 171 176 183 192 172 92 45 39 5 335 328 318 306 289 287 290 290 295 295 294 297 309 329 335 301 292 303 313 322 331 316 270 251 253 286 291
188 187 184 185 182 168 159 174 206 312 315 302 305 309 302 289 290 289 291 291 298 306 311 316 329 322 306 298 301 307 316 325 326 324 321 299 274 276